132P/Helin-Roman-Alu 2 (2006)

Japanese version
Home page
Updated on May 3, 2020

---------------------------------------------------------------------

* Profile

* Pictures

* Orbital Elements

Epoch 2006 Mar. 6.0 TT = JDT 2453800.5
T 2006 Feb. 14.9934 TT                                  MPCN
q   1.924163             (2000.0)            P               Q
n   0.1189859      Peri.  221.0984      +0.7716850      -0.6359987
a   4.093918       Node   178.3877      +0.6066383      +0.7347114
e   0.529995       Incl.    5.7659      +0.1910293      +0.2360188
P   8.28
From 122 observations 1989-1998, mean residual 0".7.

* Finding Charts

* Magnitudes Graph

        m1 = 8.0 + 5 log d + 27.5 log r

---------------------------------------------------------------------

The orbital elements are published at the MPC Ephemerides and Orbital Elements.
The charts are made with StellaNavigator Ver.2.0 for Windows (AstroArts / ASCII).
The magnitudes graphs are made with Comet for Windows.

---------------------------------------------------------------------

Copyright(C) Seiichi Yoshida (comet@aerith.net). All rights reserved.